Regional Weather Roundup
Issued by NWS

Home | Current Version | Previous Version | Graphics & Text | Print | Product List | Glossary On
Versions: 1 2 3 4 5 6 7 8 9 10 11 12 13 14 15 16 17 18 19 20 21 22 23 24 25 26 27 28 29 30 31 32 33 34 35 36 37 38 39 40 41 42 43 44 45 46 47 48 49 50
000
ASUS43 KDMX 251406
RWRIA

WEATHER ROUNDUP FOR IOWA
NATIONAL WEATHER SERVICE DES MOINES IA
900 AM CDT SAT MAR 25 2017

NOTE: "FAIR" INDICATES FEW OR NO CLOUDS BELOW 12,000 FEET WITH NO
SIGNIFICANT WEATHER AND/OR OBSTRUCTIONS TO VISIBILITY.

* - THESE STATIONS ARE NOT NWS STATIONS...THUS NOT UNDER NWS
QUALITY CONTROL.  THEY ALSO DO NOT REPORT WEATHER SUCH
AS PRECIPITATION OR FOG.

IAZ001>003-012>014-020>022-031>034-043>046-251500-
   NORTHWEST IOWA

CITY           SKY/WX    TMP DP  RH WIND       PRES   REMARKS
CARROLL *      LGT RAIN  39  37  93 NE17      30.01S WCI  30
CHEROKEE *     CLOUDY    37  37  99 NE12G17   30.05S FOG     WCI  29
LE MARS *      CLOUDY    37  36  93 NE14G23   30.08S WCI  29
ORANGE CITY *  CLOUDY    36  36 100 NE9       30.07S FOG     WCI  29
SHELDON *      CLOUDY    36  36 100 NE17G23   30.06F FOG     WCI  25
SIOUX CITY     CLOUDY    38  37  97 N8        30.07S FOG     WCI  32
SPENCER        CLOUDY    37  35  92 NE21      30.07S WCI  26
$$

IAZ055>058-069>071-079>083-090>094-251500-
   SOUTHWEST IOWA

CITY           SKY/WX    TMP DP  RH WIND       PRES   REMARKS
ATLANTIC *     LGT RAIN  39  39 100 NE20      29.96R WCI  30
AUDUBON *      LGT RAIN  37  36  93 NE14G22   29.99S WCI  29
CLARINDA *     CLOUDY    43  43 100 NE17      29.94R
COUNCIL BLFS * MIX PCPN  39  39 100 N17G24    29.97S WCI  30
CRESTON *      LGT RAIN  39  39 100 NE22G29   29.91R WCI  29
HARLAN  *      LGT RAIN  39  39 100 NE17      30.01S WCI  30
LAMONI         RAIN      43  43 100 N13G22    29.88R FOG
RED OAK *      LGT RAIN  41  39  93 NE17G25   29.94S
SHENANDOAH *   LGT RAIN  41  39  93 N17       29.94S
$$

IAZ047>049-059>061-072>074-084-251500-
   CENTRAL IOWA

CITY           SKY/WX    TMP DP  RH WIND       PRES   REMARKS
AMES           LGT RAIN  38  38 100 NE13G24   29.99R FOG     WCI  30
ANKENY *       LGT RAIN  39  37  93 NE17      29.98R WCI  30
BOONE *        LGT RAIN  37  37 100 NE20G26   29.98R WCI  27
CHARITON *     HVY RAIN  43  41  93 N16       29.90R
DES MOINES     LGT RAIN  41  39  93 N15       29.95R FOG
GRINNELL*      RAIN      39  38  96 NE20G25   29.95R WCI  29
MARSHALLTOWN   CLOUDY    38  37  97 NE16G29   29.97R FOG     WCI  29
NEWTON *       CLOUDY    39  37  93 NE20G25   29.93S FOG     WCI  30
PELLA *        DRIZZLE   41  40  97 NE10G20   29.93R
$$

IAZ004>006-015-016-023>025-035-036-251500-
   NORTH CENTRAL IOWA

CITY           SKY/WX    TMP DP  RH WIND       PRES   REMARKS
ALGONA *       CLOUDY    37  37 100 NE15G21   30.06R FOG     WCI  28
CLARION *      CLOUDY    37  37 100 NE17      30.03R FOG     WCI  28
ESTHERVILLE    CLOUDY    35  35 100 NE15      30.07F FOG     WCI  25
FORT DODGE *   CLOUDY    37  34  87 NE13G18   30.03S WCI  29
MASON CITY     CLOUDY    37  35  92 NE15      30.07S FOG     WCI  28
FOREST CITY *  CLOUDY    36  36 100 NE13G21   30.06S FOG     WCI  27
WEBSTER CITY * CLOUDY    37  37 100 NE20      30.00R FOG     WCI  27
$$

IAZ007>011-017>019-026>030-037>042-050>054-066-251500-
   NORTHEAST IOWA

CITY           SKY/WX    TMP DP  RH WIND       PRES   REMARKS
CEDAR RAPIDS   LGT RAIN  39  39 100 NE23      29.93S FOG     WCI  28
CHARLES CITY * CLOUDY    37  37 100 NE21G26   30.05S FOG     WCI  27
CLINTON *      LGT RAIN  40  39  97 NE23      29.95F WCI  30
DECORAH *      CLOUDY    36  34  93 NE10G20   30.06S WCI  28
DUBUQUE        MIX PCPN  37  35  92 NE21      30.01R FOG     WCI  26
MONTICELLO *   LGT RAIN  39  37  93 NE14G22   29.99R WCI  31
OELWEIN *      CLOUDY    37  36  93 NE24      30.00F FOG     WCI  26
WATERLOO       CLOUDY    37  35  92 NE20      30.01S WCI  27
$$

IAZ064-065-067-068-078-251500-
   EAST CENTRAL IOWA

CITY           SKY/WX    TMP DP  RH WIND       PRES   REMARKS
DAVENPORT      LGT RAIN  41  39  93 NE22      29.93S FOG
IOWA CITY      CLOUDY    42  39  89 NE17G28   29.95R
MUSCATINE *    LGT RAIN  43  41  93 NE14G23   29.92R
QUAD CITIES    LGT RAIN  43  40  89 NE16      29.91S FOG
$$

IAZ062-063-075>077-085>089-095>099-251500-
   SOUTHEAST IOWA

CITY           SKY/WX    TMP DP  RH WIND       PRES   REMARKS
BURLINGTON     LGT RAIN  46  32  58 NE17      29.86S
FAIRFIELD *    CLOUDY    43  43 100 NE15      29.89R FOG
FORT MADISON * DRIZZLE   46  45  93 NE12      29.87R
KEOKUK *       RAIN      46  46 100 NE7       29.86R
OSKALOOSA *    LGT RAIN  42  41  98 NE15G25   29.91R
OTTUMWA        LGT RAIN  43  43 100 NE17      29.89R FOG
WASHINGTON *   RAIN      43  43 100 NE16G24   29.92R VSB 1
$$

ABBREVIATIONS USED IN REMARKS
   TC - TEMPERATURES IN CELSIUS
  WCI - WIND CHILL INDEX
   HX - HEAT INDEX
  VSB - VISIBILITY
$$




USA.gov is the U.S. government's official web portal to all federal, state and local government web resources and services.